Here is the Quick Look data you requested

The Data originates at the National Weather Service, and is made available here by the UAlbany Department of Atmospheric and Environmental Sciences

Surface Observations

PAKU 161745Z 08020G26KT 10SM R06/P6000FT BKN012 M01/M03 A2953=
PAPG 161756Z 00000KT 10SM -RA FEW030 BKN046 OVC060 09/06 A2921=